AK4FD Weather Reports


time (UTC)temp
C
wind
direction
speed
KPH
gust
KPH
rain 1hr
cm
rain 24hr
cm
rain mn
cm
humidity
%
barometer
mb
20260906060755 22 47 0.0 1.6 0.00 0.00 0.00 91 1012.9
20260906060253 22 113 0.0 1.6 0.00 0.00 0.00 91 1013.0
20260906055748 22 37 0.0 0.0 0.00 0.00 0.00 91 1013.0
20260906055243 22 19 0.0 0.0 0.00 0.00 0.00 91 1013.1
20260906054738 22 91 1.6 3.2 0.00 0.00 0.00 91 1013.3
20260906054233 22 65 1.6 3.2 0.00 0.00 0.00 90 1013.2
20260906053730 22 31 0.0 1.6 0.00 0.00 0.00 89 1013.2
20260906053226 22 15 0.0 1.6 0.00 0.00 0.00 89 1013.3
20260906052721 23 309 0.0 0.0 0.00 0.00 0.00 89 1013.2
20260906052217 23 76 0.0 0.0 0.00 0.00 0.00 88 1013.4
20260906051714 23 38 1.6 1.6 0.00 0.00 0.00 88 1013.3
20260906051213 23 235 0.0 0.0 0.00 0.00 0.00 88 1013.4
20260906050708 23 230 0.0 0.0 0.00 0.00 0.00 88 1013.5
20260906050203 23 269 1.6 1.6 0.00 0.00 0.00 88 1013.5
20260906045701 23 22 0.0 1.6 0.00 0.00 0.00 88 1013.4
20260906045157 23 266 0.0 1.6 0.00 0.00 0.00 87 1013.6
20260906044653 23 259 1.6 3.2 0.00 0.00 0.00 87 1013.2
20260906044148 23 246 1.6 3.2 0.00 0.00 0.00 87 1013.5
20260906043644 23 264 1.6 3.2 0.00 0.00 0.00 87 1013.5
20260906043139 23 301 1.6 3.2 0.00 0.00 0.00 87 1013.4
20260906042639 23 294 1.6 3.2 0.00 0.00 0.00 88 1013.5
20260906042133 23 258 3.2 3.2 0.00 0.00 0.00 89 1013.5
20260906041630 23 273 1.6 3.2 0.00 0.00 0.00 89 1013.7
20260906041130 23 276 3.2 3.2 0.00 0.00 0.00 90 1013.6
20260906040625 23 271 3.2 3.2 0.00 0.00 0.00 91 1013.6
20260906040121 22 269 0.0 3.2 0.00 0.00 0.00 91 1013.8
20260906035616 22 264 0.0 1.6 0.00 0.00 0.00 91 1013.7
20260906035112 22 309 0.0 0.0 0.00 0.00 0.00 91 1013.8
20260906034611 22 224 0.0 1.6 0.00 0.00 0.00 91 1014.0
20260906034106 22 309 0.0 0.0 0.00 0.00 0.00 90 1014.1
20260906033602 22 31 0.0 1.6 0.00 0.00 0.00 90 1013.9
20260906033057 22 50 0.0 3.2 0.00 0.00 0.00 90 1014.0
20260906032554 23 81 0.0 1.6 0.00 0.00 0.00 91 1013.9
20260906032053 23 63 0.0 0.0 0.00 0.00 0.00 91 1013.8
20260906031549 23 50 0.0 0.0 0.00 0.00 0.00 90 1013.9
20260906031044 23 117 0.0 1.6 0.00 0.00 0.00 92 1013.9
20260906030543 23 117 0.0 1.6 0.00 0.00 0.00 91 1013.8
20260906030038 23 108 1.6 1.6 0.00 0.00 0.00 91 1013.9
20260906025538 22 62 0.0 1.6 0.00 0.00 0.00 90 1013.8
20260906025036 22 116 0.0 0.0 0.00 0.00 0.00 90 1013.7
20260906024531 22 217 0.0 0.0 0.00 0.00 0.00 90 1013.6
20260906024031 22 60 0.0 0.0 0.00 0.00 0.00 88 1013.7
20260906023527 23 57 0.0 1.6 0.00 0.00 0.00 88 1013.7
20260906023022 23 147 0.0 0.0 0.00 0.00 0.00 87 1013.5
20260906022517 23 37 0.0 1.6 0.00 0.00 0.00 87 1013.6
20260906022013 23 68 0.0 1.6 0.00 0.00 0.00 88 1013.4
20260906021509 23 111 0.0 1.6 0.00 0.00 0.00 87 1013.5
20260906021008 23 65 0.0 0.0 0.00 0.00 0.00 86 1013.5
20260906020507 23 49 0.0 0.0 0.00 0.00 0.00 87 1013.5
20260906020007 23 66 0.0 0.0 0.00 0.00 0.00 86 1013.7
20260906015506 23 66 0.0 0.0 0.00 0.00 0.00 85 1013.2
20260906015007 23 297 0.0 0.0 0.00 0.00 0.00 85 1013.3
20260906014501 23 87 0.0 1.6 0.00 0.00 0.00 85 1013.4
20260906013957 23 55 0.0 0.0 0.00 0.00 0.00 85 1013.6
20260906013452 23 0 0.0 0.0 0.00 0.00 0.00 85 1013.4
20260906012949 23 135 0.0 1.6 0.00 0.00 0.00 84 1013.5
20260906012449 23 117 0.0 1.6 0.00 0.00 0.00 84 1013.3
20260906011948 23 117 0.0 1.6 0.00 0.00 0.00 84 1013.5
20260906011444 23 124 0.0 1.6 0.00 0.00 0.00 84 1013.1
20260906010939 24 114 0.0 1.6 0.00 0.00 0.00 84 1013.1
20260906010434 24 113 0.0 0.0 0.00 0.00 0.00 83 1012.8
20260906005930 24 22 0.0 1.6 0.00 0.00 0.00 83 1013.0
20260906005430 24 24 0.0 1.6 0.00 0.00 0.00 82 1013.0
20260906004928 25 0 0.0 1.6 0.00 0.00 0.00 82 1012.8
20260906004422 25 15 0.0 1.6 0.00 0.00 0.00 81 1012.7
20260906003918 25 0 0.0 0.0 0.00 0.00 0.00 80 1013.2
20260906003413 25 343 0.0 0.0 0.00 0.00 0.00 79 1013.0
20260906002908 25 62 0.0 0.0 0.00 0.00 0.00 78 1013.0
20260906002403 25 37 0.0 0.0 0.00 0.00 0.00 77 1012.8
20260906001858 26 304 0.0 0.0 0.00 0.00 0.00 76 1012.7
20260906001354 26 333 0.0 0.0 0.00 0.00 0.00 75 1012.8
20260906000854 26 135 0.0 0.0 0.00 0.00 0.00 74 1012.6
20260906000355 26 37 0.0 0.0 0.00 0.00 0.00 73 1012.7
20260905235848 26 121 0.0 1.6 0.00 0.00 0.00 73 1012.4
20260905235343 26 147 0.0 1.6 0.00 0.00 0.00 72 1012.3
20260905234838 27 154 0.0 0.0 0.00 0.00 0.00 71 1012.2
20260905234333 27 44 0.0 0.0 0.00 0.00 0.00 70 1012.3
20260905233828 27 44 0.0 0.0 0.00 0.00 0.00 70 1012.1
20260905233323 27 297 0.0 0.0 0.00 0.00 0.00 69 1012.2
20260905232822 27 297 0.0 0.0 0.00 0.00 0.00 67 1012.0
20260905232319 27 299 0.0 1.6 0.00 0.00 0.00 67 1012.2
20260905231814 28 297 0.0 1.6 0.00 0.00 0.00 66 1012.0
20260905231309 28 284 0.0 1.6 0.00 0.00 0.00 65 1012.2
20260905230805 28 310 0.0 0.0 0.00 0.00 0.00 65 1012.2
20260905230303 28 297 0.0 1.6 0.00 0.00 0.00 64 1012.3
20260905225803 28 329 0.0 0.0 0.00 0.00 0.00 65 1012.5
20260905225258 28 303 1.6 1.6 0.00 0.00 0.00 64 1012.4
20260905224757 28 326 0.0 0.0 0.00 0.00 0.00 65 1012.3
20260905224253 28 297 0.0 1.6 0.00 0.00 0.00 63 1012.3
20260905223748 28 326 0.0 1.6 0.00 0.00 0.00 63 1012.3
20260905223246 28 297 0.0 3.2 0.00 0.00 0.00 62 1012.1
20260905222741 28 329 0.0 1.6 0.00 0.00 0.00 62 1012.2
20260905222240 28 269 1.6 1.6 0.00 0.00 0.00 61 1012.1
20260905221736 28 242 0.0 1.6 0.00 0.00 0.00 61 1012.1
20260905221233 28 293 1.6 3.2 0.00 0.00 0.00 60 1012.1
20260905220728 28 306 1.6 1.6 0.00 0.00 0.00 60 1012.4
20260905220224 29 308 1.6 3.2 0.00 0.00 0.00 60 1012.3
20260905215723 28 309 1.6 3.2 0.00 0.00 0.00 61 1012.4
20260905215219 28 251 3.2 3.2 0.00 0.00 0.00 61 1012.3
20260905214715 28 273 1.6 1.6 0.00 0.00 0.00 61 1012.4
20260905214210 28 269 0.0 3.2 0.00 0.00 0.00 61 1012.6
20260905213705 28 313 1.6 3.2 0.00 0.00 0.00 60 1012.7
20260905213201 28 297 1.6 3.2 0.00 0.00 0.00 60 1012.9
20260905212656 28 284 0.0 1.6 0.00 0.00 0.00 60 1012.7
20260905212155 28 318 0.0 3.2 0.00 0.00 0.00 60 1012.9
20260905211650 28 320 1.6 3.2 0.00 0.00 0.00 61 1012.8
20260905211146 28 297 0.0 0.0 0.00 0.00 0.00 60 1012.7
20260905210643 27 284 0.0 3.2 0.00 0.00 0.00 61 1012.9
20260905210142 27 319 0.0 3.2 0.00 0.00 0.00 63 1012.8
20260905205641 26 119 0.0 4.8 0.00 0.00 0.00 65 1012.9
20260905205136 26 151 0.0 3.2 0.00 0.00 0.00 66 1013.2
20260905204635 26 127 0.0 3.2 0.00 0.00 0.00 67 1013.3
20260905204131 26 52 0.0 3.2 0.00 0.00 0.00 67 1013.1
20260905203631 26 119 3.2 3.2 0.00 0.00 0.00 67 1013.1
20260905203126 26 135 0.0 3.2 0.00 0.00 0.00 67 1013.1
20260905202622 27 65 0.0 3.2 0.00 0.00 0.00 66 1013.0
20260905202117 27 184 0.0 3.2 0.00 0.00 0.00 66 1013.0
20260905201612 27 141 0.0 3.2 0.00 0.00 0.00 68 1013.0
20260905201112 27 28 0.0 0.0 0.00 0.00 0.00 68 1012.8
20260905200608 27 13 0.0 0.0 0.00 0.00 0.00 67 1012.9
20260905195601 27 301 0.0 1.6 0.00 0.00 0.00 67 1013.3
20260905195057 27 296 0.0 1.6 0.00 0.00 0.00 67 1013.5
20260905194556 27 235 0.0 3.2 0.00 0.00 0.00 67 1013.7
20260905194056 27 243 0.0 3.2 0.00 0.00 0.00 66 1013.7
20260905193551 27 296 0.0 1.6 0.00 0.00 0.00 67 1013.7
20260905193046 27 346 0.0 1.6 0.00 0.00 0.00 67 1013.9
20260905192541 27 142 0.0 1.6 0.00 0.00 0.00 67 1013.9
20260905192038 28 309 0.0 1.6 0.00 0.00 0.00 66 1013.4
20260905191536 28 42 0.0 1.6 0.00 0.00 0.00 65 1012.5
20260905191035 28 333 1.6 3.2 0.00 0.00 0.00 63 1012.3
20260905190534 28 311 1.6 3.2 0.00 0.00 0.00 60 1012.1
20260905190034 28 302 3.2 3.2 0.00 0.00 0.00 63 1012.3
20260905185533 29 292 1.6 3.2 0.00 0.00 0.00 61 1012.3
20260905185033 29 324 0.0 3.2 0.00 0.00 0.00 62 1012.4
20260905184533 29 340 1.6 3.2 0.00 0.00 0.00 60 1012.7
20260905184032 30 296 0.0 1.6 0.00 0.00 0.00 61 1012.4
20260905183531 30 322 0.0 3.2 0.00 0.00 0.00 59 1012.4
20260905183027 30 277 1.6 3.2 0.00 0.00 0.00 58 1012.8
20260905182521 30 316 1.6 3.2 0.00 0.00 0.00 57 1013.0
20260905182021 31 323 4.8 12.9 0.00 0.00 0.00 53 1013.5
20260905181516 33 291 6.4 19.3 0.00 0.00 0.00 46 1013.3
20260905181015 35 269 3.2 4.8 0.00 0.00 0.00 46 1013.3
20260905180510 35 293 3.2 6.4 0.00 0.00 0.00 47 1013.3
20260905180006 35 298 3.2 6.4 0.00 0.00 0.00 44 1013.3
20260905175504 35 302 4.8 4.8 0.00 0.00 0.00 46 1013.4
20260905175000 35 294 3.2 6.4 0.00 0.00 0.00 46 1013.5
20260905174455 35 287 3.2 4.8 0.00 0.00 0.00 47 1013.7
20260905173951 35 267 4.8 4.8 0.00 0.00 0.00 48 1013.9
20260905173447 35 299 3.2 4.8 0.00 0.00 0.00 48 1013.8
20260905172942 35 293 3.2 4.8 0.00 0.00 0.00 48 1013.8
20260905172440 34 300 3.2 6.4 0.00 0.00 0.00 49 1013.9
20260905171936 35 302 0.0 4.8 0.00 0.00 0.00 48 1014.3
20260905171433 34 251 0.0 4.8 0.00 0.00 0.00 47 1014.1
20260905170929 35 285 4.8 6.4 0.00 0.00 0.00 49 1014.0
20260905170425 34 72 0.0 4.8 0.00 0.00 0.00 48 1014.4
20260905165924 34 296 3.2 6.4 0.00 0.00 0.00 48 1014.5
20260905165419 34 294 4.8 4.8 0.00 0.00 0.00 49 1014.1
20260905164915 33 301 3.2 4.8 0.00 0.00 0.00 49 1014.5
20260905164408 33 330 3.2 3.2 0.00 0.00 0.00 53 1014.7
20260905163903 33 274 3.2 4.8 0.00 0.00 0.00 52 1014.8
20260905163400 33 313 3.2 3.2 0.00 0.00 0.00 55 1014.7
20260905162856 33 315 1.6 4.8 0.00 0.00 0.00 54 1014.9
20260905162355 33 276 1.6 4.8 0.00 0.00 0.00 54 1014.8
20260905161850 33 274 4.8 4.8 0.00 0.00 0.00 55 1015.1
20260905161349 33 321 3.2 3.2 0.00 0.00 0.00 55 1015.2
20260905160849 33 334 3.2 6.4 0.00 0.00 0.00 54 1014.9
20260905160343 32 305 1.6 1.6 0.00 0.00 0.00 56 1014.8
20260905155843 32 162 0.0 6.4 0.00 0.00 0.00 55 1015.0
20260905155337 32 55 3.2 3.2 0.00 0.00 0.00 58 1015.0
20260905154836 32 276 3.2 4.8 0.00 0.00 0.00 58 1014.8
20260905154332 32 294 3.2 3.2 0.00 0.00 0.00 58 1015.3
20260905153827 32 274 3.2 4.8 0.00 0.00 0.00 58 1015.2
20260905153324 32 144 1.6 1.6 0.00 0.00 0.00 61 1015.0
20260905152823 32 274 3.2 3.2 0.00 0.00 0.00 62 1015.0
20260905152322 31 148 3.2 3.2 0.00 0.00 0.00 61 1015.3
20260905151818 31 248 0.0 3.2 0.00 0.00 0.00 62 1015.2
20260905151313 31 294 0.0 3.2 0.00 0.00 0.00 64 1014.9
20260905150813 31 297 0.0 3.2 0.00 0.00 0.00 65 1015.1
20260905150313 31 267 3.2 3.2 0.00 0.00 0.00 66 1015.1
20260905145811 31 314 1.6 1.6 0.00 0.00 0.00 66 1015.3
20260905145310 31 247 4.8 4.8 0.00 0.00 0.00 67 1015.3
20260905144809 30 297 0.0 1.6 0.00 0.00 0.00 68 1015.2
20260905144305 30 220 1.6 3.2 0.00 0.00 0.00 67 1015.4
20260905143804 30 82 0.0 1.6 0.00 0.00 0.00 72 1015.1
20260905143258 29 259 0.0 3.2 0.00 0.00 0.00 72 1015.1
20260905142757 29 206 1.6 3.2 0.00 0.00 0.00 72 1015.3
20260905142251 28 269 3.2 3.2 0.00 0.00 0.00 72 1015.1
20260905141748 28 267 1.6 3.2 0.00 0.00 0.00 73 1015.1
20260905141243 28 64 3.2 3.2 0.00 0.00 0.00 74 1015.2
20260905140738 28 269 0.0 1.6 0.00 0.00 0.00 77 1015.3
20260905140233 28 269 0.0 1.6 0.00 0.00 0.00 77 1015.0
20260905135732 27 250 3.2 3.2 0.00 0.00 0.00 76 1015.2
20260905135228 27 297 0.0 1.6 0.00 0.00 0.00 77 1015.3
20260905134727 27 269 1.6 1.6 0.00 0.00 0.00 79 1015.3
20260905134227 27 252 0.0 1.6 0.00 0.00 0.00 79 1015.0
20260905133722 27 111 3.2 3.2 0.00 0.00 0.00 80 1015.3
20260905133217 27 348 1.6 3.2 0.00 0.00 0.00 80 1015.4
20260905132716 26 249 0.0 1.6 0.00 0.00 0.00 82 1015.3
20260905132211 26 0 0.0 0.0 0.00 0.00 0.00 84 1015.3
20260905131707 26 242 0.0 0.0 0.00 0.00 0.00 83 1015.3
20260905131202 26 154 0.0 0.0 0.00 0.00 0.00 85 1015.2
20260905130702 25 185 0.0 1.6 0.00 0.00 0.00 86 1015.2
20260905130156 25 309 0.0 0.0 0.00 0.00 0.00 86 1015.4
20260905125656 25 205 0.0 0.0 0.00 0.00 0.00 87 1015.3
20260905125152 25 255 0.0 1.6 0.00 0.00 0.00 89 1015.2
20260905124648 24 60 0.0 0.0 0.00 0.00 0.00 90 1015.3
20260905124144 24 198 0.0 3.2 0.00 0.00 0.00 90 1015.3
20260905123638 23 293 0.0 1.6 0.00 0.00 0.00 92 1015.4
20260905123136 23 81 1.6 3.2 0.00 0.00 0.00 93 1015.3
20260905122635 23 129 0.0 3.2 0.00 0.00 0.00 92 1015.4
20260905122130 23 255 1.6 3.2 0.00 0.00 0.00 92 1015.4
20260905121625 23 64 0.0 3.2 0.00 0.00 0.00 93 1015.3
20260905121120 23 27 0.0 3.2 0.00 0.00 0.00 94 1015.2
20260905120619 23 32 0.0 4.8 0.00 0.00 0.00 94 1015.2
20260905120114 22 352 0.0 3.2 0.00 0.00 0.00 94 1015.3
20260905115613 22 56 0.0 3.2 0.00 0.00 0.00 94 1015.3
20260905115109 22 354 0.0 1.6 0.00 0.00 0.00 93 1015.2
20260905114608 22 37 1.6 3.2 0.00 0.00 0.00 94 1015.3
20260905114107 22 70 0.0 3.2 0.00 0.00 0.00 94 1015.3
20260905113602 22 115 0.0 3.2 0.00 0.00 0.00 94 1014.9
20260905113057 22 71 1.6 3.2 0.00 0.00 0.00 93 1014.9
20260905112552 22 108 0.0 1.6 0.00 0.00 0.00 94 1014.6
20260905112048 22 139 0.0 1.6 0.00 0.00 0.00 93 1014.7
20260905111543 22 50 0.0 0.0 0.00 0.00 0.00 93 1014.7
20260905111042 22 13 0.0 1.6 0.00 0.00 0.00 93 1014.7
20260905110541 22 53 0.0 0.0 0.00 0.00 0.00 94 1014.7
20260905110036 22 65 0.0 1.6 0.00 0.00 0.00 94 1014.7
20260905105536 22 96 1.6 1.6 0.00 0.00 0.00 94 1014.6
20260905105030 22 106 1.6 1.6 0.00 0.00 0.00 94 1014.4
20260905104526 22 89 0.0 1.6 0.00 0.00 0.00 93 1014.3
20260905104025 22 39 0.0 1.6 0.00 0.00 0.00 93 1014.4
20260905103521 22 21 1.6 1.6 0.00 0.00 0.00 93 1014.4
20260905103017 22 62 0.0 0.0 0.00 0.00 0.00 93 1014.1
20260905102513 22 62 0.0 1.6 0.00 0.00 0.00 93 1013.9
20260905102009 22 44 0.0 0.0 0.00 0.00 0.00 94 1013.9
20260905101508 22 44 0.0 0.0 0.00 0.00 0.00 94 1014.4
20260905101006 22 333 0.0 0.0 0.00 0.00 0.00 94 1014.1
20260905100503 22 117 0.0 0.0 0.00 0.00 0.00 94 1014.1
20260905100001 22 202 0.0 0.0 0.00 0.00 0.00 94 1014.0
20260905095456 22 235 0.0 1.6 0.00 0.00 0.00 93 1013.9
20260905094952 22 89 0.0 0.0 0.00 0.00 0.00 94 1014.0
20260905094447 22 89 0.0 0.0 0.00 0.00 0.00 93 1013.9
20260905093945 22 89 0.0 0.0 0.00 0.00 0.00 93 1014.3
20260905093441 22 269 0.0 0.0 0.00 0.00 0.00 94 1014.1
20260905092936 22 290 0.0 0.0 0.00 0.00 0.00 93 1014.1
20260905092431 22 265 0.0 0.0 0.00 0.00 0.00 93 1014.3
20260905091927 23 304 0.0 0.0 0.00 0.00 0.00 93 1013.8
20260905091426 23 105 0.0 1.6 0.00 0.00 0.00 93 1014.0
20260905090926 23 104 0.0 1.6 0.00 0.00 0.00 93 1013.9
20260905090421 23 101 0.0 1.6 0.00 0.00 0.00 92 1014.3
20260905085920 23 94 1.6 1.6 0.00 0.00 0.00 92 1014.0
20260905085420 23 89 0.0 1.6 0.00 0.00 0.00 91 1014.3
20260905084916 23 70 0.0 1.6 0.00 0.00 0.00 91 1014.1
20260905084415 23 73 0.0 0.0 0.00 0.00 0.00 91 1014.0
20260905083910 23 88 0.0 1.6 0.00 0.00 0.00 91 1014.1
20260905083406 23 18 0.0 0.0 0.00 0.00 0.00 90 1014.4
20260905082901 23 326 0.0 0.0 0.00 0.00 0.00 91 1014.4
20260905082357 23 35 0.0 1.6 0.00 0.00 0.00 90 1014.3
20260905081852 23 9 0.0 1.6 0.00 0.00 0.00 90 1014.3
20260905081347 23 322 0.0 1.6 0.00 0.00 0.00 90 1014.0
20260905080846 23 308 0.0 1.6 0.00 0.00 0.00 91 1014.1
20260905080346 23 333 0.0 1.6 0.00 0.00 0.00 90 1014.7
20260905075846 23 333 0.0 1.6 0.00 0.00 0.00 91 1014.6
20260905075340 23 117 0.0 0.0 0.00 0.00 0.00 90 1014.6
20260905074839 23 32 0.0 0.0 0.00 0.00 0.00 90 1014.5
20260905074335 23 338 0.0 0.0 0.00 0.00 0.00 90 1014.7
20260905073830 23 352 0.0 0.0 0.00 0.00 0.00 90 1014.8
20260905073326 23 32 0.0 0.0 0.00 0.00 0.00 90 1014.7
20260905072825 23 13 0.0 1.6 0.00 0.00 0.00 89 1014.9
20260905072320 24 25 0.0 0.0 0.00 0.00 0.00 89 1014.9
20260905071818 24 50 0.0 1.6 0.00 0.00 0.00 89 1014.6
20260905071314 24 23 0.0 0.0 0.00 0.00 0.00 89 1014.7
20260905070814 24 242 0.0 1.6 0.00 0.00 0.00 89 1014.8
20260905070310 24 324 0.0 1.6 0.00 0.00 0.00 89 1015.0
20260905065809 24 326 0.0 0.0 0.00 0.00 0.00 89 1015.0
20260905065308 24 329 0.0 1.6 0.00 0.00 0.00 89 1015.0
20260905064803 24 25 0.0 1.6 0.00 0.00 0.00 89 1015.1
20260905064258 24 307 0.0 1.6 0.00 0.00 0.00 89 1015.2
20260905063757 24 62 0.0 0.0 0.00 0.00 0.00 89 1015.1
20260905063253 24 242 0.0 0.0 0.00 0.00 0.00 89 1015.2
20260905062749 24 147 0.0 0.0 0.00 0.00 0.00 88 1015.2
20260905062249 24 315 0.0 0.0 0.00 0.00 0.00 89 1015.3
20260905061744 24 217 0.0 0.0 0.00 0.00 0.00 88 1015.5
20260905061244 24 309 0.0 1.6 0.00 0.00 0.00 87 1015.5